Weather History for KCMR - May, 2014

Change the Weather History Date:

Monday, May 12, 2014

  Actual Average (KFLG) Record (KFLG)
Temperature  
Mean Temperature 42 °F 51 °F  
Max Temperature 59 °F 67 °F 86 °F (1996)
Min Temperature 26 °F 34 °F 20 °F (1953)
Degree Days  
Heating Degree Days 22 14  
Month to date heating degree days 190  
Since 1 July heating degree days 6546  
Cooling Degree Days 0 0  
Month to date cooling degree days 0  
Year to date cooling degree days 0  
Moisture  
Dew Point 16 °F    
Average Humidity 38    
Maximum Humidity 69    
Minimum Humidity 10    
Precipitation  
Precipitation 0.00 in 0.02 in 0.45 in (1965)
Month to date precipitation 0.25  
Year to date precipitation 7.73  
Snow  
Snow 0.00 in 0.00 in 2.00 in (1968)
Month to date snowfall 0.5  
Since 1 July snowfall 101.5  
Snow Depth -    
Sea Level Pressure  
Sea Level Pressure 30.23 in    
Wind  
Wind Speed 6 mph (North)    
Max Wind Speed 17 mph    
Max Gust Speed 24 mph    
Visibility 10 miles    
Events      
T = Trace of Precipitation, MM = Missing Value Source: NWS Daily Summary

Daily Weather History Graph

Daily Weather History Graph

Search for Another Location

Airport or City:

Trip Planner

Search our weather history database for the weather conditions in past years. The results will help you decide how hot, cold, wet, or windy it might be!

Date:

Astronomy

May. 12, 2014 Rise Set
Actual Time 5:26 AM MST 7:23 PM MST
Civil Twilight 4:58 AM MST 7:51 PM MST
Nautical Twilight 4:24 AM MST 8:25 PM MST
Astronomical Twilight 3:48 AM MST 9:02 PM MST
Moon 5:30 PM MST (5/12) 4:03 AM MST (5/12)
Length of Visible Light 14h 53m
Length of Day
13h 56m
Waxing Gibbous, 95% of the Moon is Illuminated
May 12
Waxing Gibbous
May 14
Full
May 21
Last Quarter
May 28
New
Jun 5
First Quarter

Hourly Weather History & Observations

Time (MST) Temp. Windchill Dew Point Humidity Pressure Visibility Wind Dir Wind Speed Gust Speed Precip Events Conditions
12:15 AM 33.8 °F - 19.4 °F 56% 30.16 in 10.0 mi Calm Calm - N/A   Clear
12:35 AM 32.0 °F - 19.4 °F 60% 30.17 in 10.0 mi Calm Calm - N/A   Clear
12:55 AM 32.0 °F - 19.4 °F 60% 30.17 in 10.0 mi Calm Calm - N/A   Clear
1:15 AM 33.8 °F - 19.4 °F 56% 30.17 in 10.0 mi Calm Calm - N/A   Clear
1:35 AM 30.2 °F - 19.4 °F 64% 30.17 in 10.0 mi Calm Calm - N/A   Clear
1:55 AM 33.8 °F - 19.4 °F 56% 30.16 in 10.0 mi Calm Calm - N/A   Clear
2:15 AM 30.2 °F - 19.4 °F 64% 30.16 in 10.0 mi Calm Calm - N/A   Clear
2:35 AM 33.8 °F - 19.4 °F 56% 30.16 in 10.0 mi Calm Calm - N/A   Clear
2:55 AM 32.0 °F - 19.4 °F 60% 30.16 in 10.0 mi Calm Calm - N/A   Clear
3:15 AM 33.8 °F - 19.4 °F 56% 30.16 in 10.0 mi Calm Calm - N/A   Clear
3:35 AM 32.0 °F 28.7 °F 19.4 °F 60% 30.16 in 10.0 mi SSW 3.5 mph - N/A   Clear
3:55 AM 32.0 °F - 19.4 °F 60% 30.16 in 10.0 mi Calm Calm - N/A   Clear
4:15 AM 32.0 °F - 19.4 °F 60% 30.16 in 10.0 mi Calm Calm - N/A   Clear
4:35 AM 26.6 °F - 17.6 °F 69% 30.17 in 10.0 mi Calm Calm - N/A   Clear
4:55 AM 32.0 °F - 19.4 °F 60% 30.17 in 10.0 mi Calm Calm - N/A   Clear
5:15 AM 28.4 °F - 19.4 °F 69% 30.17 in 10.0 mi Calm Calm - N/A   Clear
5:35 AM 30.2 °F 26.7 °F 19.4 °F 64% 30.17 in 10.0 mi ESE 3.5 mph - N/A   Clear
5:55 AM 32.0 °F 28.7 °F 19.4 °F 60% 30.18 in 10.0 mi ESE 3.5 mph - N/A   Clear
6:15 AM 32.0 °F - 19.4 °F 60% 30.19 in 10.0 mi Calm Calm - N/A   Clear
6:55 AM 37.4 °F 31.4 °F 21.2 °F 52% 30.19 in 10.0 mi NNE 8.1 mph - N/A   Clear
7:15 AM 41.0 °F 35.2 °F 21.2 °F 45% 30.19 in 10.0 mi NNE 9.2 mph - N/A   Clear
7:35 AM 42.8 °F 37.0 °F 21.2 °F 42% 30.20 in 10.0 mi NE 10.4 mph - N/A   Clear
7:55 AM 44.6 °F 39.7 °F 21.2 °F 39% 30.22 in 10.0 mi North 9.2 mph - N/A   Clear
8:15 AM 46.4 °F 40.4 °F 21.2 °F 37% 30.23 in 10.0 mi NNE 13.8 mph - N/A   Clear
8:35 AM 46.4 °F 40.7 °F 19.4 °F 34% 30.24 in 10.0 mi NNE 12.7 mph 23.0 mph N/A   Clear
8:55 AM 46.4 °F 41.1 °F 19.4 °F 34% 30.25 in 10.0 mi NNE 11.5 mph 17.3 mph N/A   Clear
9:15 AM 48.2 °F - 19.4 °F 32% 30.24 in 10.0 mi NNE 17.3 mph 20.7 mph N/A   Clear
9:35 AM 48.2 °F - 19.4 °F 32% 30.25 in 10.0 mi NE 15.0 mph 19.6 mph N/A   Clear
9:55 AM 50.0 °F - 21.2 °F 32% 30.25 in 10.0 mi NNE 9.2 mph 19.6 mph N/A   Clear
10:15 AM 50.0 °F - 21.2 °F 32% 30.25 in 10.0 mi NNE 8.1 mph 18.4 mph N/A   Clear
10:55 AM 51.8 °F - 19.4 °F 28% 30.25 in 10.0 mi ENE 5.8 mph - N/A   Clear
11:15 AM 53.6 °F - 17.6 °F 24% 30.25 in 10.0 mi NNE 10.4 mph 18.4 mph N/A   Clear
11:35 AM 51.8 °F - 17.6 °F 26% 30.24 in 10.0 mi NE 4.6 mph - N/A   Clear
1:15 PM 57.2 °F - 8.6 °F 14% 30.24 in 10.0 mi WNW 8.1 mph 17.3 mph N/A   Clear
1:55 PM 57.2 °F - 8.6 °F 14% 30.23 in 10.0 mi NW 5.8 mph 19.6 mph N/A   Clear
2:15 PM 59.0 °F - 6.8 °F 13% 30.23 in 10.0 mi WNW 11.5 mph 19.6 mph N/A   Clear
2:35 PM 59.0 °F - 8.6 °F 14% 30.23 in 10.0 mi NNW 12.7 mph 21.9 mph N/A   Clear
2:55 PM 59.0 °F - 3.2 °F 11% 30.22 in 10.0 mi NNW 11.5 mph 20.7 mph N/A   Clear
3:15 PM 59.0 °F - 1.4 °F 10% 30.22 in 10.0 mi NNW 16.1 mph 20.7 mph N/A   Clear
3:55 PM 59.0 °F - 6.8 °F 13% 30.23 in 10.0 mi WNW 15.0 mph 21.9 mph N/A   Clear
4:15 PM 57.2 °F - 6.8 °F 13% 30.23 in 10.0 mi NW 13.8 mph 23.0 mph N/A   Clear
4:35 PM 57.2 °F - 6.8 °F 13% 30.23 in 10.0 mi NNW 15.0 mph 19.6 mph N/A   Clear
4:55 PM 57.2 °F - 6.8 °F 13% 30.23 in 10.0 mi WNW 10.4 mph 23.0 mph N/A   Clear
5:15 PM 57.2 °F - 6.8 °F 13% 30.23 in 10.0 mi WNW 16.1 mph 21.9 mph N/A   Clear
5:35 PM 57.2 °F - 6.8 °F 13% 30.23 in 10.0 mi WNW 16.1 mph 24.2 mph N/A   Clear
5:55 PM 55.4 °F - 6.8 °F 14% 30.23 in 10.0 mi NNW 13.8 mph - N/A   Clear
6:15 PM 55.4 °F - 8.6 °F 15% 30.23 in 10.0 mi NNW 15.0 mph 21.9 mph N/A   Clear
6:35 PM 55.4 °F - 10.4 °F 17% 30.24 in 10.0 mi NNW 13.8 mph 20.7 mph N/A   Clear
6:55 PM 53.6 °F - 10.4 °F 18% 30.25 in 10.0 mi NW 16.1 mph 19.6 mph N/A   Clear
7:35 PM 50.0 °F - 14.0 °F 24% 30.27 in 10.0 mi NW 10.4 mph - N/A   Clear
7:55 PM 50.0 °F - 14.0 °F 24% 30.28 in 10.0 mi NW 13.8 mph - N/A   Clear
8:15 PM 48.2 °F - 14.0 °F 25% 30.29 in 10.0 mi NNW 10.4 mph - N/A   Clear
8:35 PM 46.4 °F 40.4 °F 14.0 °F 27% 30.30 in 10.0 mi NE 13.8 mph 17.3 mph N/A   Clear
8:55 PM 46.4 °F 40.1 °F 17.6 °F 32% 30.31 in 10.0 mi NE 15.0 mph 21.9 mph N/A   Clear
9:15 PM 46.4 °F 40.1 °F 17.6 °F 32% 30.33 in 10.0 mi NE 15.0 mph 19.6 mph N/A   Clear
9:35 PM 46.4 °F 39.8 °F 19.4 °F 34% 30.33 in 10.0 mi ENE 16.1 mph 20.7 mph N/A   Clear
9:55 PM 44.6 °F 38.1 °F 19.4 °F 37% 30.34 in 10.0 mi ENE 13.8 mph - N/A   Clear
10:15 PM 44.6 °F 38.8 °F 19.4 °F 37% 30.34 in 10.0 mi ENE 11.5 mph - N/A   Clear
10:35 PM 42.8 °F 36.6 °F 21.2 °F 42% 30.35 in 10.0 mi ENE 11.5 mph - N/A   Clear
10:55 PM 41.0 °F 34.3 °F 23.0 °F 49% 30.35 in 10.0 mi ENE 11.5 mph - N/A   Clear
11:15 PM 41.0 °F 33.5 °F 23.0 °F 49% 30.35 in 10.0 mi ENE 13.8 mph 19.6 mph N/A   Clear
11:35 PM 41.0 °F 33.1 °F 23.0 °F 49% 30.36 in 10.0 mi NE 15.0 mph 19.6 mph N/A   Clear
11:55 PM 41.0 °F 32.8 °F 23.0 °F 49% 30.36 in 10.0 mi NE 16.1 mph - N/A   Clear